sat.trackr.live / text

‹ back to catalog

FLOCK 4H-36

NORAD 66739 · 2025-276CB

PAYLOAD ACTIVE UNKNOWN

§ Identity

Operator
Country
US
Launch date
2025-11-28
Launch site
AFWTR
Launch vehicle
Mass (kg)
RCS (m²)

Purposes: earth_obs

External: N2YO · Heavens-Above · Gunter

§ Orbital elements

Epoch: 2026-09-19T11:25:41.006784Z

Period
94.65 min
Inclination
97.4167°
Eccentricity
0.0002515
Mean motion
15.21464493 rev/d
Perigee alt
499.7 km
Apogee alt
503.2 km
Semi-major
6,879.6 km
B*
2.2336e-4
RAAN
334.9019°
Arg perigee
26.3229°
Mean anomaly
333.8134°
Rev number
4,476

§ Raw data

FLOCK 4H-361 66739U 25276CB  26262.47616906  .00004952  00000+0  22336-3 0  99982 66739  97.4167 334.9019 0002515  26.3229 333.8134 15.21464493 44768

JSON: /api/v1/satellites/66739 · /tle

For live sub-satellite position, see the globe view (requires WebGL).

§ Visibility from observer

Set your observer location to see the next 7 days of passes ≥ 10°. The values pass through the URL so the page stays shareable.

No JS? Fill the form by hand. The geolocation button needs JavaScript.